Regional Weather Roundup
Issued by NWS Sioux Falls, SD

Home | Current Version | Previous Version | Graphics & Text | Print | Product List | Glossary Off
Versions: 1 2 3 4 5 6 7 8 9 10 11 12 13 14 15 16 17 18 19 20 21 22 23 24 25 26 27 28 29 30 31 32 33 34 35 36 37 38 39 40 41 42 43 44 45 46 47 48 49 50

000
ASUS43 KFSD 051710
RWRFSD

WEATHER ROUNDUP FOR SE SOUTH DAKOTA/SW MINNESOTA/NW IOWA
NATIONAL WEATHER SERVICE SIOUX FALLS SD
1200 PM CDT SUN JUL 05 2015

NOTE: "FAIR" INDICATES FEW OR NO CLOUDS BELOW 12,000 FEET WITH NO
SIGNIFICANT WEATHER AND OR OBSTRUCTIONS TO VISIBILITY.


SDZ038>040-050-052>070-051800-
SOUTHEAST SOUTH DAKOTA

CITY           SKY/WX    TMP DP  RH WIND       PRES   REMARKS
BROOKINGS      MOSUNNY   81  66  61 S24       29.81S
CHAMBERLAIN    MOSUNNY   82  71  67 S15       29.76S
HURON          SUNNY     85  71  63 S13       29.75S
MADISON        FAIR      81  70  69 S18G33    29.81R
MITCHELL       SUNNY     85  69  58 S21G29    29.77S
SIOUX FALLS    MOSUNNY   82  69  64 S12G23    29.81F
WINNER         FAIR      90  66  45 S15       29.75F
YANKTON        SUNNY     84  66  54 S16       29.77F
$$

MNZ071-072-080-081-089-090-097-098-051800-
SOUTHWEST MINNESOTA

CITY           SKY/WX    TMP DP  RH WIND       PRES   REMARKS
FAIRMONT       CLOUDY    75  63  64 S17G23    29.88S
JACKSON        PTSUNNY   77  66  69 SW14      29.88R
LUVERNE        SUNNY     81  68  65 S14G21    29.84S
MARSHALL       MOSUNNY   84  64  51 S16       29.81
MONTEVIDEO     MOSUNNY   82  66  57 S7        29.81S
PIPESTONE      SUNNY     79  64  61 SW16G28   29.83R
REDWOOD FALLS  MOSUNNY   82  66  58 S14       29.84R
TRACY          MOSUNNY   81  69  66 SE10      29.84R
WINDOM         PTSUNNY   79  66  65 S9        29.87R
WORTHINGTON    MOSUNNY   79  66  65 SW22G35   29.85R
$$

IAZ001>003-012>014-020>022-031-032-NEZ013-014-SDZ071-051800-
NORTHWEST IOWA

CITY           SKY/WX    TMP DP  RH WIND       PRES   REMARKS
CHEROKEE       MOSUNNY   78  70  76 S13G18    29.87F
DENISON        CLOUDY    75  68  78 S8G18     29.90F
ESTHERVILLE    CLOUDY    78  68  71 S23G30    29.88R
LE MARS        MOSUNNY   79  66  65 S13       29.84F
ORANGE CITY    SUNNY     77  66  69 S14       29.85F
SHELDON        MOSUNNY   79  77  94 S18       29.84F
SIOUX CITY     PTSUNNY   78  68  71 SE18      29.83F
SPENCER        PTSUNNY   81  67  62 S17G24    29.88F
STORM LAKE     PTSUNNY   79  70  73 S15       29.91F
$$

ABBREVIATIONS USED IN REMARKS
   TC - TEMPERATURE IN CELSIUS
  WCI - WIND CHILL INDEX
   HX - HEAT INDEX
  VSB - VISIBILITY



USA.gov is the U.S. government's official web portal to all federal, state and local government web resources and services.